Ionia, MI

3:44 AM EDT on August 22, 2017 (GMT -0400)
Ionia

Weather History for KY70 - September, 2013

Change the Weather History Date:

Wednesday, September 25, 2013

  Actual Average (KGRR) Record (KGRR)
Temperature  
Mean Temperature 57 °F -  
Max Temperature 71 °F 67 °F 90 °F (1920)
Min Temperature 43 °F 46 °F 29 °F (1947)
Degree Days  
Heating Degree Days 8    
Growing Degree Days 7 (Base 50)    
Moisture  
Dew Point 47 °F    
Average Humidity 76    
Maximum Humidity 99    
Minimum Humidity 38    
Precipitation  
Precipitation 0.00 in - - ()
Sea Level Pressure  
Sea Level Pressure 30.00 in    
Wind  
Wind Speed 4 mph (ENE)    
Max Wind Speed 9 mph    
Max Gust Speed 9 mph    
Visibility 8 miles    
Events Fog    
Averages and records for this station are not official NWS values.
T = Trace of Precipitation, MM = Missing Value Source: NWS Daily Summary

Daily Weather History Graph

Daily Weather History Graph

Search for Another Location

Airport or City:

Trip Planner

Search our weather history database for the weather conditions in past years. The results will help you decide how hot, cold, wet, or windy it might be!

Date:

Astronomy

Sep. 25, 2013 Rise Set
Actual Time 7:31 AM EDT 7:31 PM EDT
Civil Twilight 7:02 AM EDT 7:59 PM EDT
Nautical Twilight 6:29 AM EDT 8:32 PM EDT
Astronomical Twilight 5:56 AM EDT 9:06 PM EDT
Moon 11:29 PM EDT (9/25) 1:43 PM EDT (9/25)
Length of Visible Light 12h 57m
Length of Day
12h 00m
Waning Gibbous, 64% of the Moon is Illuminated
Sep 25
Waning Gibbous
Sep 26
Last Quarter
Oct 4
New
Oct 11
First Quarter
Oct 18
Full

Hourly Weather History & Observations

Time (EDT) Temp. Windchill Dew Point Humidity Pressure Visibility Wind Dir Wind Speed Gust Speed Precip Events Conditions
12:14 AM 49.1 °F - 47.3 °F 93% 30.00 in 10.0 mi ENE 5.8 mph - N/A   Clear
12:34 AM 48.6 °F - 47.1 °F 95% 30.00 in 10.0 mi ENE 5.8 mph - N/A   Clear
12:54 AM 48.7 °F - 47.5 °F 95% 30.00 in 10.0 mi East 4.6 mph - N/A   Clear
1:14 AM 49.1 °F - 47.8 °F 95% 30.00 in 10.0 mi ENE 3.5 mph - N/A   Clear
1:34 AM 48.6 °F - 47.3 °F 95% 30.00 in 10.0 mi Calm Calm - N/A   Clear
1:54 AM 48.9 °F - 47.7 °F 95% 30.01 in 10.0 mi East 3.5 mph - N/A   Clear
2:14 AM 48.6 °F - 47.5 °F 96% 30.01 in 7.0 mi East 4.6 mph - N/A   Clear
2:34 AM 48.0 °F - 47.3 °F 97% 30.01 in 7.0 mi NE 3.5 mph - N/A   Clear
2:54 AM 48.0 °F - 47.3 °F 97% 30.01 in 7.0 mi NE 3.5 mph - N/A   Clear
3:14 AM 47.1 °F - 46.6 °F 98% 30.01 in 5.0 mi East 3.5 mph - N/A   Clear
3:34 AM 47.5 °F - 46.9 °F 98% 30.00 in 7.0 mi ENE 3.5 mph - N/A   Clear
3:54 AM 47.7 °F - 47.1 °F 98% 30.00 in 7.0 mi Calm Calm - N/A   Clear
4:14 AM 48.2 °F - 47.5 °F 97% 29.99 in 7.0 mi Calm Calm - N/A   Clear
4:34 AM 48.4 °F - 47.7 °F 97% 29.99 in 7.0 mi Calm Calm - N/A   Clear
4:54 AM 47.5 °F - 46.8 °F 97% 29.99 in 5.0 mi Calm Calm - N/A   Clear
5:14 AM 46.0 °F - 45.5 °F 98% 29.99 in 4.0 mi Calm Calm - N/A   Clear
5:34 AM 45.9 °F - 45.3 °F 98% 30.00 in 4.0 mi Calm Calm - N/A   Clear
5:54 AM 46.9 °F - 46.6 °F 99% 30.00 in 4.0 mi Calm Calm - N/A   Clear
6:14 AM 43.3 °F 41.7 °F 42.8 °F 98% 30.00 in 0.2 mi NE 3.5 mph - N/A Fog Fog
6:34 AM 44.8 °F - 44.6 °F 99% 30.00 in 0.5 mi Calm Calm - N/A Fog Fog
6:54 AM 44.4 °F 42.9 °F 44.2 °F 99% 30.01 in 1.0 mi NNE 3.5 mph - N/A   Mist
7:14 AM 43.5 °F 41.9 °F 43.2 °F 99% 30.01 in 0.8 mi NNE 3.5 mph - N/A   Mist
7:34 AM 43.7 °F 42.1 °F 43.3 °F 99% 30.01 in 0.8 mi NNE 3.5 mph - N/A   Mist
7:54 AM 43.9 °F - 43.7 °F 99% 30.02 in 0.8 mi Calm Calm - N/A   Mist
8:14 AM 44.8 °F - 44.6 °F 99% 30.02 in 1.8 mi Calm Calm - N/A   Mist
8:34 AM 45.1 °F - 44.8 °F 99% 30.02 in 4.0 mi Calm Calm - N/A   Clear
8:54 AM 46.6 °F - 46.2 °F 99% 30.02 in 7.0 mi ENE 3.5 mph - N/A   Clear
9:14 AM 48.4 °F - 48.0 °F 99% 30.02 in 10.0 mi East 4.6 mph - N/A   Clear
9:34 AM 50.7 °F - 48.2 °F 91% 30.02 in 10.0 mi ENE 5.8 mph - N/A   Clear
9:54 AM 52.9 °F - 49.1 °F 87% 30.02 in 10.0 mi ENE 5.8 mph - N/A   Clear
10:14 AM 54.7 °F - 50.0 °F 84% 30.03 in 10.0 mi ENE 6.9 mph - N/A   Clear
10:34 AM 56.5 °F - 50.5 °F 80% 30.02 in 10.0 mi ENE 5.8 mph - N/A   Clear
10:54 AM 58.1 °F - 50.7 °F 76% 30.02 in 10.0 mi ENE 6.9 mph - N/A   Clear
11:14 AM 60.4 °F - 50.9 °F 71% 30.02 in 10.0 mi East 5.8 mph - N/A   Clear
11:34 AM 61.2 °F - 50.2 °F 67% 30.02 in 10.0 mi ENE 9.2 mph - N/A   Clear
11:54 AM 62.6 °F - 49.8 °F 63% 30.02 in 7.0 mi ENE 6.9 mph - N/A   Clear
12:14 PM 63.3 °F - 50.0 °F 62% 30.02 in 10.0 mi NNE 5.8 mph - N/A   Clear
12:34 PM 64.4 °F - 50.2 °F 60% 30.02 in 7.0 mi East 6.9 mph - N/A   Clear
12:54 PM 65.1 °F - 49.8 °F 58% 30.01 in 10.0 mi Calm Calm - N/A   Clear
1:14 PM 65.5 °F - 49.8 °F 57% 30.01 in 10.0 mi East 5.8 mph 9.2 mph N/A   Clear
1:34 PM 65.8 °F - 49.8 °F 56% 30.00 in 10.0 mi ESE 5.8 mph - N/A   Clear
1:54 PM 67.5 °F - 48.0 °F 50% 29.99 in 10.0 mi ESE 3.5 mph - N/A   Clear
2:14 PM 68.5 °F - 48.6 °F 49% 29.99 in 10.0 mi ENE 6.9 mph - N/A   Clear
2:34 PM 68.5 °F - 47.3 °F 47% 29.98 in 10.0 mi East 6.9 mph - N/A   Clear
2:54 PM 69.4 °F - 46.4 °F 44% 29.97 in 10.0 mi ENE 9.2 mph - N/A   Clear
3:14 PM 69.8 °F - 46.6 °F 43% 29.97 in 5.0 mi East 6.9 mph - N/A   Haze
3:34 PM 70.2 °F - 45.5 °F 41% 29.97 in 10.0 mi NE 4.6 mph - N/A   Clear
3:54 PM 70.3 °F - 44.1 °F 39% 29.97 in 10.0 mi East 4.6 mph - N/A   Clear
4:14 PM 71.1 °F - 44.2 °F 38% 29.97 in 10.0 mi ENE 9.2 mph - N/A   Clear
4:34 PM 71.4 °F - 45.0 °F 39% 29.97 in 10.0 mi ENE 4.6 mph - N/A   Clear
4:54 PM 71.1 °F - 44.8 °F 39% 29.97 in 10.0 mi ENE 5.8 mph - N/A   Clear
5:14 PM 71.2 °F - 45.5 °F 40% 29.97 in 10.0 mi ENE 6.9 mph - N/A   Clear
5:34 PM 70.9 °F - 45.7 °F 40% 29.97 in 10.0 mi ENE 6.9 mph - N/A   Clear
5:54 PM 70.7 °F - 44.6 °F 39% 29.97 in 10.0 mi NE 9.2 mph - N/A   Clear
6:14 PM 70.0 °F - 44.6 °F 40% 29.97 in 10.0 mi ENE 9.2 mph - N/A   Clear
6:34 PM 69.1 °F - 45.9 °F 43% 29.98 in 10.0 mi ENE 5.8 mph - N/A   Clear
6:54 PM 67.6 °F - 46.4 °F 46% 29.98 in 10.0 mi ENE 8.1 mph - N/A   Clear
7:14 PM 65.5 °F - 47.1 °F 51% 29.98 in 10.0 mi NE 5.8 mph - N/A   Clear
7:34 PM 63.5 °F - 47.7 °F 56% 29.98 in 10.0 mi ENE 4.6 mph - N/A   Clear
7:54 PM 60.6 °F - 48.7 °F 65% 29.98 in 10.0 mi ENE 4.6 mph - N/A   Clear
8:14 PM 61.9 °F - 49.3 °F 63% 29.98 in 10.0 mi East 6.9 mph - N/A   Clear
8:34 PM 60.8 °F - 50.4 °F 68% 29.99 in 10.0 mi East 5.8 mph - N/A   Clear
8:54 PM 59.2 °F - 50.7 °F 74% 29.99 in 10.0 mi East 5.8 mph - N/A   Clear
9:14 PM 57.7 °F - 50.5 °F 77% 29.99 in 10.0 mi ENE 5.8 mph - N/A   Clear
9:34 PM 57.6 °F - 50.9 °F 78% 30.00 in 10.0 mi ENE 8.1 mph - N/A   Clear
9:54 PM 56.8 °F - 50.9 °F 80% 29.99 in 10.0 mi ENE 6.9 mph - N/A   Clear
10:14 PM 55.6 °F - 50.4 °F 83% 30.00 in 10.0 mi ENE 4.6 mph - N/A   Clear
10:34 PM 55.0 °F - 50.2 °F 84% 30.00 in 10.0 mi East 3.5 mph - N/A   Clear
10:54 PM 52.7 °F - 48.4 °F 85% 30.00 in 10.0 mi East 4.6 mph - N/A   Clear
11:14 PM 51.6 °F - 50.2 °F 95% 30.00 in 10.0 mi ENE 3.5 mph - N/A   Clear
11:34 PM 51.8 °F - 50.2 °F 94% 30.00 in 10.0 mi ENE 4.6 mph - N/A   Clear
11:54 PM 51.8 °F - 49.3 °F 91% 30.00 in 10.0 mi NE 3.5 mph - N/A   Clear